Location: Green River State Wildlife Area
(41.6390°N, 89.5080°W)
Time: 07:01:56
(UTC-06:00)

Daily predictions for brighter satellites

Satellite Brightness Start Highest point End
(mag) Time Altitude Azimuth Time Altitude Azimuth Time Altitude Azimuth
SJ-12 4.0 17:19:56 10° SSE 17:24:05 87° W 17:28:14 10° NNW
OTV 4 1.5 17:22:39 10° WSW 17:25:28 39° S 17:28:15 10° ESE
Cosmos 1844 4.2 17:20:51 10° N 17:26:12 38° ENE 17:31:32 10° SE
Cosmos 1763 Rocket 3.7 17:21:12 10° S 17:26:16 52° ESE 17:31:17 10° NNE
Cosmos 1484 Rocket 3.3 17:27:28 10° SE 17:31:07 39° ENE 17:34:49 10° N
Cosmos 1674 2.7 17:30:34 10° S 17:34:19 62° E 17:38:08 10° NNE
COSMOS 2441 4.4 17:30:05 10° SSE 17:34:53 63° ENE 17:39:42 10° N
Cosmos 1766 Rocket 3.7 17:30:46 10° S 17:35:14 81° W 17:39:43 10° N
COSMOS 2428 2.7 17:29:41 10° SSW 17:35:22 71° ESE 17:41:04 10° NNE
Elektron 3 4.4 17:32:20 10° NW 17:38:06 72° NE 17:41:17 10° SE
Cosmos 2237 4.3 17:34:57 10° SSW 17:40:39 86° WNW 17:46:25 10° NNE
Cosmos 2237 Rocket 3.2 17:37:23 10° SSE 17:41:55 26° ESE 17:46:29 10° NE
CZ-4 R/B 2.4 17:38:50 10° S 17:42:35 48° W 17:46:22 10° NNW
COSMO-SKYMED 1 2.9 17:39:54 10° NNE 17:44:04 44° E 17:48:12 10° S
Lacrosse 5 rocket 2.9 17:42:57 10° NNW 17:45:26 16° NNE 17:47:13 13° ENE
Cosmos 2228 Rocket 3.0 17:41:14 10° N 17:45:39 70° E 17:50:03 10° SSE
YAOGAN 1 2.9 17:41:48 10° S 17:46:06 70° WSW 17:50:26 10° NNW
SL-16 R/B 4.0 17:44:42 10° ESE 17:46:12 11° E 17:46:58 11° E
Cosmos 2084 4.3 17:42:53 10° S 17:46:14 28° ESE 17:48:50 14° ENE
Hubble Space Telescope 3.5 17:45:18 10° SSW 17:46:51 12° S 17:48:23 10° SSE
Cosmos 1300 3.5 17:45:31 10° NNE 17:48:54 29° ENE 17:52:16 10° SE
SPOT 3 Rocket 4.0 17:44:15 10° S 17:49:22 68° WSW 17:54:31 10° NNW
Cosmos 540 Rocket 4.3 17:45:33 10° SSE 17:49:57 29° E 17:54:23 10° NE
Thor Agena Rocket 3.8 17:45:05 10° NNE 17:50:22 78° WNW 17:55:33 10° SSW
USA 215 3.3 17:46:13 10° ESE 17:52:41 65° NE 17:59:10 10° NW
Cosmos 1726 2.7 17:53:23 10° N 17:56:54 36° ENE 18:00:25 10° SSE
Meteor 2-2 Rocket 4.2 17:52:16 10° N 17:57:55 79° E 18:03:34 10° SSE
MONITOR-E 4.3 17:55:26 10° S 17:58:36 81° WSW 18:01:47 10° NNW
Cosmos 1125 Rocket 3.7 17:55:03 10° N 18:00:03 45° ENE 18:05:00 10° SE
IDEFIX/ARIANE 42P 4.1 17:58:37 10° SSW 18:03:28 40° W 18:08:22 10° NNW
Molniya-1 4.1 18:02:30 10° SW 18:05:10 71° NW 18:09:22 12° NE
Cosmos 1328 3.8 18:02:59 10° S 18:06:52 60° E 18:10:46 10° NNE
Cosmos 2346 Rocket 4.5 18:01:50 10° S 18:08:06 86° E 18:14:23 10° N
Cosmos 332 Rocket 3.8 18:04:28 10° SSW 18:09:17 89° W 18:14:11 10° NNE
Spot 2 Rocket 4.4 18:08:42 10° ESE 18:12:45 25° ENE 18:16:48 10° NNE
Meteor 1-28 Rocket 3.1 18:10:31 10° NNE 18:14:13 65° E 18:17:54 10° S
DNEPR-1 R/B 4.5 18:07:55 10° SSW 18:14:57 69° ESE 18:19:39 16° NE
Cosmos 1844 Rocket 3.0 18:10:28 10° NNW 18:16:07 70° WSW 18:21:42 10° SSE
Cosmos 2058 3.2 18:13:26 10° SSE 18:17:19 43° E 18:20:15 16° NNE
Cosmos 1743 Rocket 4.3 18:13:53 10° SSW 18:18:17 57° W 18:22:43 10° N
SJ-6B 3.2 18:14:33 10° SE 18:18:23 43° ENE 18:22:18 10° N
Cosmos 841 Rocket 3.9 18:13:53 10° SSW 18:19:07 64° WNW 18:24:23 10° NNE
Cosmos 1980 3.6 18:23:04 10° SSW 18:28:43 71° ESE 18:33:12 17° NNE
Cosmos 2360 Rocket 4.3 18:24:51 10° WSW 18:29:09 22° NW 18:33:30 10° N
Cosmos 1515 Rocket 4.4 18:26:12 10° NNW 18:30:34 53° W 18:34:53 10° S
Atlas Centaur 2 4.3 18:30:02 10° SW 18:31:36 11° SSW 18:33:04 10° S
ALOS 2.7 18:27:30 10° SE 18:31:46 36° ENE 18:36:03 10° N
SKYMED 2 4.3 18:27:57 10° N 18:32:11 53° WNW 18:36:25 10° SSW
Cosmos 44 3.4 18:30:31 10° SSW 18:35:45 66° ESE 18:38:08 31° NE
Aureole 2 Rocket 3.0 18:32:44 10° S 18:35:45 41° ESE 18:35:45 41° ESE
Cosmos 1703 3.9 18:33:51 10° SSE 18:36:40 35° SE 18:36:40 35° SE
Cosmos 2151 3.0 18:33:32 10° SSW 18:37:44 77° W 18:41:58 10° N
Cosmos 1805 Rocket 3.8 18:33:36 10° SSE 18:37:51 46° E 18:38:40 41° ENE
CENTAUR R/B 3.5 18:32:46 10° WSW 18:38:39 45° NW 18:44:49 12° NNE
Cosmos 2333 Rocket 2.2 18:33:18 10° SSW 18:38:56 82° WNW 18:43:40 15° NNE
Cosmos 371 Rocket 3.7 18:35:29 10° SSW 18:40:14 61° WNW 18:44:40 12° NNE
BREEZE-M DEB (TANK) 2.1 18:39:07 10° WSW 18:41:18 46° WNW 18:41:18 46° WNW
FENGYUN 3A 3.7 18:39:08 10° SE 18:44:15 50° ENE 18:49:27 10° N
Cosmos 1151 Rocket 3.7 18:40:11 10° NNW 18:44:21 54° W 18:48:31 10° S
SL-19 R/B 4.3 18:40:04 10° SSE 18:46:01 66° ENE 18:51:39 10° N
Cosmos 1340 Rocket 2.6 18:45:10 10° S 18:49:06 78° E 18:49:43 61° NNE
Meteor 1-27 4.3 18:43:41 10° N 18:49:31 86° W 18:55:21 10° S
Lacrosse 5 3.9 18:50:52 10° NW 18:54:02 16° NNW 18:55:44 14° N
BREEZE-M DEB (TANK) 3.4 18:52:32 10° WSW 18:54:00 35° WSW 18:54:00 35° WSW
Cosmos 2219 Rocket 3.1 18:51:02 10° SW 18:56:27 47° WNW 19:01:24 12° NNE
Cosmos 44 Rocket 4.1 18:54:20 10° SW 18:59:19 51° NW 19:01:53 27° N
Cosmos 2278 Rocket 2.4 18:54:20 10° NNW 19:00:00 70° WSW 19:05:37 10° SSE
Meteor 2-10 4.3 18:55:58 10° NNW 19:01:00 67° W 19:06:08 10° S
OTV 4 2.5 18:58:37 10° WSW 19:00:26 25° SW 19:00:26 25° SW
Timation 1 Rocket 4.2 18:56:03 10° NNW 19:02:04 67° ENE 19:04:13 40° SE
Sich 1 4.5 18:59:41 10° S 19:01:42 26° SSE 19:01:42 26° SSE
Resurs 01 Rocket 2.1 19:08:42 48° N 19:08:42 48° N 19:11:56 10° N
Cosmos 1626 4.4 19:10:23 10° S 19:11:11 16° S 19:11:11 16° S
H-2A ROCKET BODY 3.9 19:06:57 10° WSW 19:23:23 33° SSW 19:25:47 26° SSE
Lacrosse 5 rocket 3.0 19:21:15 10° NW 19:22:58 25° NW 19:22:58 25° NW
Cosmos 2237 Rocket 3.1 19:20:19 10° SW 19:25:40 45° WNW 19:28:35 25° N
Cosmos 304 Rocket 4.1 19:23:44 10° SSW 19:28:02 63° WSW 19:28:02 63° WSW
SL-16 R/B 2.1 19:23:44 10° SSW 19:28:56 77° S 19:28:56 77° S
USA 215 4.5 19:29:54 10° SSE 19:35:53 38° SW 19:41:54 10° WNW
Cosmos 2297 3.8 19:32:11 10° NNW 19:37:53 73° WSW 19:37:58 72° WSW
ALOS 4.5 20:05:36 10° SW 20:09:17 23° W 20:12:59 10° NW
